CPA367 ZSPD-VHHH

Flight info

Callsign CPA367
Flight time 1h 8m
Altitude 36100
Route HSN91D HSN W13 BEGMO M503 TOLAK/N0501F361 M503 LELIM V591 ABBEY
Aircraft B77W/H-SDE1E2E3FGHIJ2J3J4J5M1RWXY/LB1D1

Departure

Time 2026-05-07 11:50
Airport Shanghai Pudong International Airport (ZSPD)

Arrival

Time 2026-05-07 12:59
Airport Hong Kong International Airport (VHHH)
Time Latitude Longitude Altitude Speed Heading
2026-05-07 11:26 31.15036 121.80862 28 ft 0 kts 252°
2026-05-07 11:36 31.15043 121.80885 28 ft 4 kts 252°
2026-05-07 11:37 31.15051 121.80915 28 ft 3 kts 252°
2026-05-07 11:37 31.15060 121.80938 27 ft 4 kts 208°
2026-05-07 11:37 31.15084 121.80940 28 ft 4 kts 162°
2026-05-07 11:37 31.15100 121.80933 28 ft 0 kts 162°
2026-05-07 11:41 31.15095 121.80935 28 ft 1 kts 162°
2026-05-07 11:41 31.15081 121.80940 28 ft 3 kts 162°
2026-05-07 11:41 31.15057 121.80949 28 ft 4 kts 162°
2026-05-07 11:42 31.15025 121.80961 28 ft 6 kts 162°
2026-05-07 11:42 31.14982 121.80977 28 ft 8 kts 162°
2026-05-07 11:42 31.14923 121.80999 28 ft 10 kts 162°
2026-05-07 11:42 31.14850 121.81026 28 ft 12 kts 162°
2026-05-07 11:43 31.14811 121.81102 28 ft 12 kts 85°
2026-05-07 11:43 31.14832 121.81203 28 ft 13 kts 73°
2026-05-07 11:43 31.14849 121.81312 28 ft 14 kts 105°
2026-05-07 11:43 31.14771 121.81378 28 ft 15 kts 159°
2026-05-07 11:44 31.14668 121.81419 28 ft 16 kts 162°
2026-05-07 11:44 31.14555 121.81462 27 ft 18 kts 162°
2026-05-07 11:44 31.14433 121.81508 27 ft 19 kts 162°
2026-05-07 11:44 31.14307 121.81557 27 ft 20 kts 162°
2026-05-07 11:45 31.14172 121.81604 28 ft 20 kts 163°
2026-05-07 11:45 31.14038 121.81655 28 ft 20 kts 160°
2026-05-07 11:45 31.13905 121.81708 28 ft 20 kts 162°
2026-05-07 11:45 31.13771 121.81757 28 ft 20 kts 162°
2026-05-07 11:46 31.13636 121.81806 27 ft 20 kts 162°
2026-05-07 11:46 31.13502 121.81855 27 ft 20 kts 162°
2026-05-07 11:46 31.13368 121.81907 27 ft 20 kts 161°
2026-05-07 11:46 31.13235 121.81959 27 ft 20 kts 162°
2026-05-07 11:47 31.13101 121.82010 27 ft 20 kts 162°
2026-05-07 11:47 31.12967 121.82061 27 ft 20 kts 162°
2026-05-07 11:47 31.12833 121.82111 28 ft 20 kts 162°
2026-05-07 11:47 31.12701 121.82160 27 ft 20 kts 162°
2026-05-07 11:48 31.12619 121.82254 27 ft 18 kts 87°
2026-05-07 11:48 31.12633 121.82327 27 ft 9 kts 74°
2026-05-07 11:48 31.12672 121.82383 27 ft 10 kts 15°
2026-05-07 11:48 31.12734 121.82372 26 ft 0 kts 343°
2026-05-07 11:49 31.12735 121.82372 26 ft 0 kts 343°
2026-05-07 11:50 31.12743 121.82369 31 ft 7 kts 343°
2026-05-07 11:50 31.12978 121.82282 27 ft 77 kts 341°
2026-05-07 11:50 31.13774 121.81988 31 ft 159 kts 344°
2026-05-07 11:50 31.14927 121.81603 623 ft 176 kts 345°
2026-05-07 11:51 31.16106 121.81190 1572 ft 179 kts 343°
2026-05-07 11:51 31.17352 121.80845 2294 ft 196 kts 353°
2026-05-07 11:51 31.18764 121.81071 2879 ft 213 kts 12°
2026-05-07 11:51 31.20345 121.81495 3008 ft 252 kts 10°
2026-05-07 11:52 31.22102 121.81900 3838 ft 261 kts
2026-05-07 11:52 31.23901 121.82283 4936 ft 264 kts
2026-05-07 11:52 31.25701 121.82644 5973 ft 269 kts
2026-05-07 11:52 31.27570 121.83002 6983 ft 274 kts
2026-05-07 11:53 31.29470 121.83349 7991 ft 279 kts
2026-05-07 11:53 31.31407 121.83696 8968 ft 283 kts
2026-05-07 11:53 31.33378 121.84047 9909 ft 289 kts
2026-05-07 11:53 31.35321 121.84711 10616 ft 304 kts 26°
2026-05-07 11:54 31.36988 121.86439 10897 ft 342 kts 54°
2026-05-07 11:54 31.37918 121.89128 11142 ft 373 kts 76°
2026-05-07 11:54 31.38128 121.92233 11437 ft 397 kts 98°
2026-05-07 11:54 31.37178 121.95284 12321 ft 405 kts 123°
2026-05-07 11:55 31.35337 121.97769 13391 ft 406 kts 143°
2026-05-07 11:55 31.32925 121.99442 14455 ft 402 kts 163°
2026-05-07 11:55 31.30262 122.00453 15329 ft 406 kts 167°
2026-05-07 11:55 31.27534 122.01402 16299 ft 412 kts 167°
2026-05-07 11:56 31.24778 122.02364 17347 ft 415 kts 167°
2026-05-07 11:56 31.22000 122.03363 18327 ft 420 kts 167°
2026-05-07 11:56 31.19199 122.04398 19213 ft 426 kts 167°
2026-05-07 11:56 31.16348 122.05463 19984 ft 432 kts 166°
2026-05-07 11:57 31.13588 122.06964 20583 ft 450 kts 150°
2026-05-07 11:57 31.11274 122.09503 21250 ft 463 kts 134°
2026-05-07 11:57 31.09210 122.12438 21823 ft 471 kts 133°
2026-05-07 11:57 31.07110 122.15397 22039 ft 477 kts 134°
2026-05-07 11:58 31.04961 122.18346 22023 ft 476 kts 135°
2026-05-07 11:58 31.02804 122.21250 22021 ft 472 kts 135°
2026-05-07 11:58 31.00554 122.23990 22014 ft 465 kts 145°
2026-05-07 11:58 30.97830 122.25947 22018 ft 457 kts 162°
2026-05-07 11:59 30.94838 122.27059 22080 ft 452 kts 169°
2026-05-07 11:59 30.91833 122.28079 22715 ft 458 kts 168°
2026-05-07 11:59 30.88771 122.29150 23461 ft 462 kts 168°
2026-05-07 11:59 30.85685 122.30255 24176 ft 465 kts 168°
2026-05-07 12:00 30.82568 122.31390 24806 ft 470 kts 168°
2026-05-07 12:00 30.79024 122.32690 25425 ft 476 kts 168°
2026-05-07 12:00 30.66655 122.37230 27511 ft 492 kts 167°
2026-05-07 12:00 30.56416 122.40284 28819 ft 489 kts 185°
2026-05-07 12:01 30.43753 122.39290 29970 ft 502 kts 189°
2026-05-07 12:01 30.29745 122.38403 31763 ft 502 kts 188°
2026-05-07 12:01 30.15888 122.37617 33754 ft 494 kts 189°
2026-05-07 12:01 30.08225 122.37173 34898 ft 489 kts 189°
2026-05-07 12:02 30.05980 122.37042 35220 ft 487 kts 190°
2026-05-07 12:02 30.01456 122.36779 35834 ft 485 kts 190°
2026-05-07 12:02 29.99219 122.36650 36065 ft 486 kts 191°
2026-05-07 12:03 29.82713 122.38454 36109 ft 517 kts 174°
2026-05-07 12:03 29.55023 122.45202 36016 ft 499 kts 176°
2026-05-07 12:04 29.27612 122.51541 36084 ft 511 kts 175°
2026-05-07 12:04 29.18673 122.51831 36078 ft 489 kts 199°
2026-05-07 12:04 29.06667 122.45517 36091 ft 475 kts 215°
2026-05-07 12:05 28.83258 122.31684 36013 ft 468 kts 214°
2026-05-07 12:05 28.60148 122.18162 36065 ft 472 kts 214°
2026-05-07 12:06 28.36506 122.04410 36032 ft 481 kts 214°
2026-05-07 12:06 28.12991 121.90798 36020 ft 468 kts 214°
2026-05-07 12:07 27.89580 121.76890 36061 ft 482 kts 216°
2026-05-07 12:07 27.66094 121.62373 36014 ft 473 kts 216°
2026-05-07 12:08 27.43034 121.48297 36074 ft 475 kts 215°
2026-05-07 12:08 27.31278 121.41167 36091 ft 486 kts 215°
2026-05-07 12:08 27.19349 121.33948 36051 ft 484 kts 215°
2026-05-07 12:09 26.96194 121.19901 36019 ft 472 kts 215°
2026-05-07 12:09 26.72760 121.05750 36079 ft 487 kts 214°
2026-05-07 12:10 26.49245 120.91619 36009 ft 478 kts 214°
2026-05-07 12:10 26.25922 120.77648 36065 ft 479 kts 214°
2026-05-07 12:11 26.01990 120.63391 36054 ft 489 kts 214°
2026-05-07 12:11 25.78371 120.49382 36015 ft 477 kts 213°
2026-05-07 12:12 25.55512 120.34298 36072 ft 481 kts 223°
2026-05-07 12:12 25.33984 120.16334 36013 ft 481 kts 222°
2026-05-07 12:13 25.13169 119.99140 36035 ft 474 kts 222°
2026-05-07 12:13 24.93269 119.79778 36063 ft 480 kts 234°
2026-05-07 12:14 24.76122 119.57706 36015 ft 470 kts 233°
2026-05-07 12:14 24.59082 119.35976 36067 ft 476 kts 233°
2026-05-07 12:15 24.41524 119.13699 36032 ft 483 kts 233°
2026-05-07 12:15 24.24465 118.92154 36028 ft 469 kts 233°
2026-05-07 12:16 24.07069 118.70269 36091 ft 485 kts 233°
2026-05-07 12:16 23.89300 118.48024 36011 ft 481 kts 233°
2026-05-07 12:17 23.71710 118.26331 36053 ft 476 kts 232°
2026-05-07 12:17 23.53877 118.04470 36067 ft 491 kts 232°
2026-05-07 12:18 23.36148 117.82839 36010 ft 479 kts 232°
2026-05-07 12:18 23.18389 117.61252 36079 ft 486 kts 232°
2026-05-07 12:19 23.00260 117.39041 36027 ft 489 kts 232°
2026-05-07 12:19 22.94055 117.31372 36035 ft 483 kts 234°
2026-05-07 12:20 22.90047 117.25576 36032 ft 479 kts 238°
2026-05-07 12:20 22.86150 117.19698 36047 ft 480 kts 238°
2026-05-07 12:21 22.82217 117.13828 36036 ft 482 kts 237°
2026-05-07 12:21 22.78256 117.07953 36033 ft 483 kts 237°
2026-05-07 12:22 22.74419 117.01982 36036 ft 481 kts 243°
2026-05-07 12:22 22.71557 116.95637 36036 ft 477 kts 251°
2026-05-07 12:23 22.69139 116.88949 36032 ft 477 kts 252°
2026-05-07 12:23 22.66719 116.82257 36035 ft 478 kts 251°
2026-05-07 12:24 22.64274 116.75575 36036 ft 477 kts 251°
2026-05-07 12:24 22.61814 116.68910 36035 ft 476 kts 251°
2026-05-07 12:25 22.59352 116.62251 36034 ft 476 kts 251°
2026-05-07 12:25 22.56892 116.55608 36033 ft 475 kts 251°
2026-05-07 12:26 22.54433 116.48974 36035 ft 475 kts 251°
2026-05-07 12:26 22.51974 116.42342 36035 ft 475 kts 251°
2026-05-07 12:27 22.49504 116.35702 36036 ft 475 kts 251°
2026-05-07 12:27 22.47034 116.29070 36035 ft 476 kts 251°
2026-05-07 12:28 22.44572 116.22468 36031 ft 476 kts 251°
2026-05-07 12:28 22.42093 116.15826 36026 ft 476 kts 251°
2026-05-07 12:29 22.39610 116.09184 36027 ft 476 kts 251°
2026-05-07 12:29 22.38364 116.05850 35486 ft 482 kts 251°
2026-05-07 12:29 22.37101 116.02478 34545 ft 484 kts 251°
2026-05-07 12:29 22.35870 115.99196 33562 ft 485 kts 250°
2026-05-07 12:30 22.34601 115.95812 32492 ft 486 kts 250°
2026-05-07 12:30 22.33329 115.92422 31372 ft 488 kts 250°
2026-05-07 12:30 22.32055 115.89030 30423 ft 485 kts 250°
2026-05-07 12:30 22.30931 115.85624 29613 ft 478 kts 256°
2026-05-07 12:31 22.30157 115.82165 28820 ft 472 kts 260°
2026-05-07 12:31 22.29623 115.78692 28031 ft 466 kts 264°
2026-05-07 12:31 22.29360 115.75223 27257 ft 461 kts 269°
2026-05-07 12:31 22.29313 115.71822 26528 ft 456 kts 270°
2026-05-07 12:32 22.29274 115.68412 26224 ft 457 kts 270°
2026-05-07 12:32 22.29206 115.64977 26038 ft 457 kts 269°
2026-05-07 12:32 22.29112 115.61519 25924 ft 451 kts 269°
2026-05-07 12:32 22.29013 115.58209 25509 ft 443 kts 269°
2026-05-07 12:33 22.28818 115.51611 24034 ft 436 kts 269°
2026-05-07 12:33 22.28723 115.48343 23240 ft 434 kts 269°
2026-05-07 12:33 22.28630 115.45102 22512 ft 430 kts 268°
2026-05-07 12:34 22.28538 115.41885 21873 ft 425 kts 268°
2026-05-07 12:34 22.28447 115.38717 21238 ft 420 kts 268°
2026-05-07 12:34 22.28356 115.35581 20587 ft 416 kts 268°
2026-05-07 12:34 22.28265 115.32484 19961 ft 411 kts 268°
2026-05-07 12:35 22.28172 115.29408 19365 ft 406 kts 268°
2026-05-07 12:35 22.28079 115.26386 18850 ft 400 kts 268°
2026-05-07 12:35 22.27986 115.23399 18351 ft 396 kts 268°
2026-05-07 12:35 22.27893 115.20432 17860 ft 395 kts 268°
2026-05-07 12:36 22.27800 115.17465 17372 ft 395 kts 268°
2026-05-07 12:36 22.27709 115.14545 16889 ft 394 kts 268°
2026-05-07 12:36 22.27615 115.11586 16396 ft 393 kts 268°
2026-05-07 12:36 22.27522 115.08641 15908 ft 392 kts 268°
2026-05-07 12:37 22.27429 115.05698 15425 ft 390 kts 268°
2026-05-07 12:37 22.27336 115.02775 14940 ft 389 kts 268°
2026-05-07 12:37 22.27244 114.99907 14464 ft 387 kts 268°
2026-05-07 12:37 22.27152 114.97054 13993 ft 385 kts 268°
2026-05-07 12:38 22.27051 114.94185 13504 ft 379 kts 266°
2026-05-07 12:38 22.26604 114.91368 13056 ft 381 kts 253°
2026-05-07 12:38 22.25601 114.88738 12845 ft 377 kts 243°
2026-05-07 12:38 22.24262 114.86348 12768 ft 368 kts 236°
2026-05-07 12:39 22.22771 114.84108 12493 ft 367 kts 235°
2026-05-07 12:39 22.21266 114.81864 12089 ft 370 kts 235°
2026-05-07 12:39 22.19773 114.79636 11706 ft 372 kts 235°
2026-05-07 12:39 22.18244 114.77342 11389 ft 372 kts 235°
2026-05-07 12:40 22.16758 114.75105 11131 ft 370 kts 235°
2026-05-07 12:40 22.15262 114.72850 10864 ft 369 kts 235°
2026-05-07 12:40 22.13780 114.70613 10767 ft 363 kts 235°
2026-05-07 12:40 22.12328 114.68420 10722 ft 356 kts 235°
2026-05-07 12:41 22.10899 114.66261 10660 ft 350 kts 235°
2026-05-07 12:41 22.09496 114.64142 10637 ft 344 kts 235°
2026-05-07 12:41 22.08118 114.62062 10389 ft 338 kts 235°
2026-05-07 12:41 22.06765 114.60021 10098 ft 330 kts 235°
2026-05-07 12:42 22.05574 114.57977 9823 ft 308 kts 249°
2026-05-07 12:42 22.05098 114.55805 9608 ft 295 kts 263°
2026-05-07 12:42 22.04910 114.53607 9271 ft 293 kts 266°
2026-05-07 12:42 22.04777 114.51438 9114 ft 285 kts 266°
2026-05-07 12:43 22.04658 114.49329 8867 ft 280 kts 266°
2026-05-07 12:43 22.04544 114.47254 8708 ft 276 kts 266°
2026-05-07 12:43 22.04433 114.45190 8555 ft 276 kts 266°
2026-05-07 12:43 22.04323 114.43122 8385 ft 277 kts 266°
2026-05-07 12:44 22.04213 114.41038 8070 ft 279 kts 266°
2026-05-07 12:44 22.04103 114.38945 7685 ft 281 kts 266°
2026-05-07 12:44 22.03993 114.36835 7292 ft 282 kts 266°
2026-05-07 12:44 22.03884 114.34719 6929 ft 283 kts 266°
2026-05-07 12:45 22.03776 114.32611 6633 ft 280 kts 266°
2026-05-07 12:45 22.03666 114.30526 6321 ft 278 kts 266°
2026-05-07 12:45 22.03559 114.28446 5974 ft 278 kts 266°
2026-05-07 12:45 22.03455 114.26396 5657 ft 277 kts 266°
2026-05-07 12:46 22.03350 114.24328 5352 ft 275 kts 266°
2026-05-07 12:46 22.03248 114.22273 5016 ft 275 kts 266°
2026-05-07 12:46 22.03151 114.20218 4675 ft 274 kts 266°
2026-05-07 12:46 22.03212 114.18206 4520 ft 263 kts 282°
2026-05-07 12:47 22.03747 114.16283 4526 ft 273 kts 288°
2026-05-07 12:47 22.04350 114.14316 4518 ft 278 kts 287°
2026-05-07 12:47 22.04890 114.12324 4509 ft 277 kts 284°
2026-05-07 12:47 22.05359 114.10323 4502 ft 274 kts 282°
2026-05-07 12:48 22.05775 114.08316 4346 ft 272 kts 281°
2026-05-07 12:48 22.06146 114.06339 4187 ft 265 kts 280°
2026-05-07 12:48 22.06482 114.04421 4091 ft 255 kts 279°
2026-05-07 12:48 22.06794 114.02557 3988 ft 251 kts 279°
2026-05-07 12:49 22.07095 114.00724 3925 ft 251 kts 279°
2026-05-07 12:49 22.07385 113.98914 3849 ft 252 kts 279°
2026-05-07 12:49 22.07680 113.97048 3787 ft 252 kts 279°
2026-05-07 12:49 22.07975 113.95191 3710 ft 249 kts 279°
2026-05-07 12:50 22.08265 113.93346 3619 ft 250 kts 278°
2026-05-07 12:50 22.08554 113.91494 3542 ft 251 kts 278°
2026-05-07 12:50 22.08844 113.89635 3447 ft 253 kts 278°
2026-05-07 12:50 22.09134 113.87759 3355 ft 254 kts 278°
2026-05-07 12:51 22.09422 113.85890 3264 ft 254 kts 278°
2026-05-07 12:51 22.09711 113.84021 3254 ft 250 kts 278°
2026-05-07 12:51 22.09998 113.82179 3249 ft 248 kts 278°
2026-05-07 12:51 22.10188 113.80964 3255 ft 249 kts 278°
2026-05-07 12:52 22.10487 113.79124 3258 ft 248 kts 283°
2026-05-07 12:52 22.11280 113.77519 3247 ft 244 kts 316°
2026-05-07 12:52 22.12690 113.76547 3249 ft 240 kts 335°
2026-05-07 12:52 22.14207 113.75798 3104 ft 239 kts 335°
2026-05-07 12:53 22.15701 113.75064 2911 ft 233 kts 336°
2026-05-07 12:53 22.17167 113.74341 2728 ft 228 kts 335°
2026-05-07 12:53 22.18573 113.73643 2621 ft 218 kts 335°
2026-05-07 12:53 22.19940 113.72961 2386 ft 214 kts 335°
2026-05-07 12:54 22.21259 113.72307 2149 ft 203 kts 335°
2026-05-07 12:54 22.22527 113.71714 2094 ft 198 kts 345°
2026-05-07 12:54 22.23924 113.71785 2049 ft 205 kts 25°
2026-05-07 12:54 22.24997 113.72675 2015 ft 182 kts 44°
2026-05-07 12:55 22.25906 113.73540 1974 ft 168 kts 42°
2026-05-07 12:55 22.26765 113.74339 1791 ft 159 kts 42°
2026-05-07 12:55 22.27617 113.75143 1670 ft 167 kts 44°
2026-05-07 12:55 22.28262 113.76223 1589 ft 186 kts 71°
2026-05-07 12:56 22.28696 113.77560 1516 ft 190 kts 71°
2026-05-07 12:56 22.29148 113.78899 1509 ft 188 kts 71°
2026-05-07 12:56 22.29572 113.80203 1487 ft 181 kts 71°
2026-05-07 12:56 22.29987 113.81490 1347 ft 183 kts 72°
2026-05-07 12:57 22.30387 113.82729 1091 ft 165 kts 71°
2026-05-07 12:57 22.30748 113.83846 880 ft 150 kts 71°
2026-05-07 12:57 22.31085 113.84888 687 ft 145 kts 72°
2026-05-07 12:57 22.31418 113.85923 485 ft 147 kts 71°
2026-05-07 12:58 22.31750 113.86958 320 ft 145 kts 71°
2026-05-07 12:58 22.32088 113.87995 124 ft 147 kts 71°
2026-05-07 12:58 22.32416 113.89013 42 ft 136 kts 71°
2026-05-07 12:58 22.32682 113.89835 41 ft 90 kts 71°
2026-05-07 12:59 22.32819 113.90276 41 ft 27 kts 77°
2026-05-07 12:59 22.32820 113.90456 41 ft 15 kts 99°
2026-05-07 12:59 22.32816 113.90483 41 ft 4 kts 100°
2026-05-07 12:59 22.32807 113.90533 41 ft 9 kts 100°
2026-05-07 13:00 22.32794 113.90612 41 ft 11 kts 100°
2026-05-07 13:00 22.32783 113.90699 41 ft 12 kts 85°
2026-05-07 13:00 22.32809 113.90791 41 ft 13 kts 71°
2026-05-07 13:00 22.32840 113.90890 41 ft 15 kts 71°
2026-05-07 13:01 22.32873 113.90998 40 ft 16 kts 71°
2026-05-07 13:01 22.32910 113.91114 40 ft 17 kts 71°
2026-05-07 13:01 22.32951 113.91239 40 ft 18 kts 70°
2026-05-07 13:01 22.32995 113.91372 40 ft 19 kts 70°
2026-05-07 13:02 22.33041 113.91512 40 ft 20 kts 71°
2026-05-07 13:02 22.33087 113.91654 40 ft 20 kts 71°
2026-05-07 13:02 22.33132 113.91796 40 ft 20 kts 70°
2026-05-07 13:02 22.33179 113.91938 40 ft 20 kts 71°
2026-05-07 13:03 22.33210 113.92056 40 ft 16 kts 89°
2026-05-07 13:03 22.33130 113.92134 40 ft 17 kts 159°
2026-05-07 13:03 22.33016 113.92179 40 ft 18 kts 160°
2026-05-07 13:03 22.32898 113.92222 40 ft 18 kts 161°
2026-05-07 13:04 22.32779 113.92266 40 ft 18 kts 161°
2026-05-07 13:04 22.32661 113.92310 40 ft 18 kts 161°
2026-05-07 13:04 22.32544 113.92356 40 ft 18 kts 160°
2026-05-07 13:04 22.32426 113.92401 40 ft 18 kts 160°
2026-05-07 13:05 22.32309 113.92447 39 ft 18 kts 160°
2026-05-07 13:05 22.32193 113.92496 40 ft 18 kts 140°
2026-05-07 13:05 22.32190 113.92624 40 ft 18 kts 76°
2026-05-07 13:05 22.32170 113.92682 40 ft 10 kts 143°
2026-05-07 13:06 22.32072 113.92728 40 ft 17 kts 160°
2026-05-07 13:06 22.31955 113.92772 40 ft 18 kts 162°
2026-05-07 13:06 22.31838 113.92816 40 ft 18 kts 155°
2026-05-07 13:06 22.31736 113.92868 40 ft 15 kts 159°
2026-05-07 13:07 22.31634 113.92907 39 ft 14 kts 161°
2026-05-07 13:07 22.31600 113.92920 40 ft 4 kts 161°
2026-05-07 13:07 22.31574 113.92938 40 ft 5 kts 142°
2026-05-07 13:07 22.31538 113.92967 38 ft 7 kts 152°
2026-05-07 13:08 22.31499 113.92984 40 ft 0 kts 159°
2026-05-07 13:08 22.31492 113.92987 40 ft 2 kts 160°
2026-05-07 13:08 22.31470 113.92995 40 ft 4 kts 161°
2026-05-07 13:08 22.31461 113.92998 39 ft 2 kts 161°
2026-05-07 13:09 22.31458 113.92999 40 ft 0 kts 161°